Regional Weather Roundup
Issued by NWS Kansas City/Pleasant Hill, MO

Home | Current Version | Previous Version | Text Only | Print | Product List | Glossary On
Versions: 1 2 3 4 5 6 7 8 9 10 11 12 13 14 15 16 17 18 19 20 21 22 23 24 25 26 27 28 29 30 31 32 33 34 35 36 37 38 39 40 41 42 43 44 45 46 47 48 49 50
000
ASUS43 KEAX 042011
RWREAX

WEATHER ROUNDUP FOR EASTERN KANSAS AND NORTHWEST MISSOURI
NATIONAL WEATHER SERVICE KANSAS CITY/PLEASANT HILL MO
300 PM CDT MON MAY 04 2015

KSZ040-057-103>105-MOZ028-029-037-043-042100-
...KANSAS CITY METROPOLITAN AREA...

CITY           SKY/WX    TMP DP  RH WIND       PRES   REMARKS
K.C. INTL      CLOUDY    81  64  56 SE10      30.03F
K.C. DOWNTOWN  MOSUNNY   83  60  45 S7        30.01F
LEES SUMMIT    PTSUNNY   81  61  50 S8G17     30.04F
OLATHE - IXD   MOSUNNY   84  61  45 S14       30.03F
OLATHE - OJC   MOSUNNY   81  62  52 S12       30.02F
LAWRENCE       SUNNY     83  61  47 S9G18     30.00F

$$

MOZ001>008-011>017-020>025-030>033-038>040-044>046-053-054-042100-
...NORTHERN AND CENTRAL MISSOURI...

CITY           SKY/WX    TMP DP  RH WIND       PRES   REMARKS
ST. JOSEPH     PTSUNNY   81  58  45 VRB6      30.02F
MOSBY          PTCLDY    81  59  47 SE9       30.03F
WARRENSBURG    MOSUNNY   81  61  50 S10G18    30.05S
WHITEMAN AFB   PTSUNNY   82  62  51 S14       30.04F
CLINTON        MOSUNNY   82  64  54 S10       30.07F
SEDALIA        PTSUNNY   80  62  54 S9G17     30.08F
WARSAW         NOT AVBL
MARSHALL       PTSUNNY   81  64  57 SE5       30.08F
CHILLICOTHE      N/A     78  64  61 S6        30.05F
MOBERLY        CLOUDY    73  59  60 S7        30.10S
KIRKSVILLE     CLOUDY    75  62  64 S10       30.07S

$$

MOZ041-047>049-056>058-063>065-088>090-097-042100-
...EASTERN AND SOUTHERN MISSOURI...

CITY           SKY/WX    TMP DP  RH WIND       PRES   REMARKS
ST. LOUIS INTL CLOUDY    84  58  40 W7        30.10F
SPIRIT OF STL  CLOUDY    81  58  45 SW5       30.08F
COLUMBIA       CLOUDY    79  60  52 S8        30.08F
JEFFERSON CITY CLOUDY    82  57  42 VRB5      30.07F
MEXICO         CLOUDY    81  64  57 SW14      30.09R
ROLLA          PTSUNNY   81  60  48 SW13      30.09F
LEBANON        PTSUNNY   81  55  41 S9        30.12F
OSAGE BEACH    MOSUNNY  N/A N/A N/A S10       30.09S
SPRINGFIELD    MOSUNNY   80  60  50 S12       30.10F
BRANSON        PTSUNNY   81  57  44 S8        30.14F
NEVADA         MOSUNNY   81  63  54 SW12      30.07F
JOPLIN         PTSUNNY   80  62  54 S10       30.09F
WEST PLAINS    PTSUNNY   78  54  43 S10       30.15F

$$

IAZ060-094-KSZ022-034>040-054-083-096-NEZ052-066-093-042100-
...KANSAS...SOUTHEAST NEBRASKA AND IOWA...

CITY           SKY/WX    TMP DP  RH WIND       PRES   REMARKS
TOPEKA         MOSUNNY   84  61  45 S15       29.99F
MANHATTAN      TSTM      73  60  63 NW10G22   29.99R
EMPORIA        PTSUNNY   81  60  48 S17       30.01F
CHANUTE        FAIR      82  63  52 S18G24    30.05S
WICHITA        PTSUNNY   84  61  45 S16G24    30.00F
OMAHA          LGT RAIN  66  58  75 E5        30.09R
LINCOLN        CLOUDY    60  55  83 N12       30.10S
FALLS CITY     LGT RAIN  74  62  66 NE10      30.01F
LAMONI         CLOUDY    71  61  70 NE10      30.06S
DES MOINES     LGT RAIN  69  60  73 E12       30.06F

$$




USA.gov is the U.S. government's official web portal to all federal, state and local government web resources and services.